Cumshewa Island, British Columbia

9:15 PM PDT on May 25, 2017 (GMT -0700)
Cumshewa Island

Weather History for CWZL - December, 2013

Change the Weather History Date:

Sunday, December 29, 2013

  Actual Average (CYZP) Record (CYZP)
Temperature  
Mean Temperature 48 °F -  
Max Temperature 51 °F 40 °F 51 °F (2013)
Min Temperature 45 °F 33 °F 17 °F (1996)
Degree Days  
Heating Degree Days 17    
Moisture  
Dew Point 45 °F    
Average Humidity 88    
Maximum Humidity 96    
Minimum Humidity 78    
Precipitation  
Precipitation 0.00 in - - ()
Sea Level Pressure  
Sea Level Pressure 30.07 in    
Wind  
Wind Speed 5 mph ()    
Max Wind Speed 23 mph    
Max Gust Speed -    
Averages and records for this station are not official NWS values.
T = Trace of Precipitation, MM = Missing Value Source: Averaged Metar Reports

Daily Weather History Graph

Daily Weather History Graph

Search for Another Location

Airport or City:

Trip Planner

Search our weather history database for the weather conditions in past years. The results will help you decide how hot, cold, wet, or windy it might be!

Date:

Astronomy

Dec. 29, 2013 Rise Set
Actual Time 9:00 AM PST 4:37 PM PST
Civil Twilight 8:17 AM PST 5:19 PM PST
Nautical Twilight 7:33 AM PST 6:04 PM PST
Astronomical Twilight 6:50 AM PST 6:46 PM PST
Moon 5:39 AM PST (12/29) 2:31 PM PST (12/29)
Length of Visible Light 9h 01m
Length of Day
7h 37m
Waning Crescent, 10% of the Moon is Illuminated
Dec 29
Waning Crescent
Jan 1
New
Jan 7
First Quarter
Jan 15
Full
Jan 23
Last Quarter

Hourly Weather History & Observations

Time (PST) Temp. Windchill Dew Point Humidity Pressure Visibility Wind Dir Wind Speed Gust Speed Precip Events Conditions
12:00 AM 50.7 °F - 45.7 °F 83% 30.02 in - WSW 2.3 mph - N/A   Unknown
1:00 AM 51.8 °F - 45.5 °F 79% 30.01 in - SE 2.3 mph - N/A   Unknown
2:00 AM 50.5 °F - 45.9 °F 84% 30.03 in - NW 2.3 mph - N/A   Unknown
3:00 AM 50.2 °F - 45.3 °F 83% 30.05 in - WSW 2.3 mph - N/A   Unknown
4:00 AM 51 °F - 46 °F 78% 30.05 in - ESE 1.2 mph - -  
4:00 AM 50.7 °F - 46.2 °F 85% 30.05 in - ESE 1.2 mph - N/A   Unknown
5:00 AM 49.3 °F - 45.5 °F 87% 30.06 in - North 1.2 mph - N/A   Unknown
6:00 AM 50.0 °F - 46.2 °F 87% 30.06 in - SE 1.2 mph - N/A   Unknown
7:00 AM 49.5 °F - 45.5 °F 86% 30.08 in - NE 4.6 mph - N/A   Unknown
8:00 AM 48.2 °F - 44.4 °F 87% 30.09 in - SSW 1.2 mph - N/A   Unknown
9:00 AM 46.8 °F - 43.9 °F 90% 30.11 in - West 3.5 mph - N/A   Unknown
10:00 AM 48 °F - 45 °F 84% 30.13 in - West 8.1 mph - -  
10:00 AM 47.8 °F - 44.8 °F 89% 30.13 in - West 8.1 mph - N/A   Unknown
11:00 AM 45.5 °F 39.9 °F 43.9 °F 94% 30.14 in - West 11.5 mph - N/A   Unknown
12:00 PM 45.5 °F 41.3 °F 44.4 °F 96% 30.15 in - WSW 8.1 mph - N/A   Unknown
1:00 PM 47.7 °F - 43.3 °F 85% 30.14 in - SW 6.9 mph - N/A   Unknown
2:00 PM 48.0 °F - 43.2 °F 83% 30.12 in - ENE 1.2 mph - N/A   Unknown
3:00 PM 47.1 °F - 43.9 °F 88% 30.11 in - NNE 4.6 mph - N/A   Unknown
4:00 PM 47 °F - 44 °F 84% 30.10 in - West 1.2 mph - -  
4:00 PM 46.8 °F - 41.9 °F 83% 30.10 in - West 1.2 mph - N/A   Unknown
5:00 PM 46.4 °F - 44.2 °F 92% 30.11 in - ENE 2.3 mph - N/A   Unknown
6:00 PM 46.9 °F - 44.8 °F 92% 30.09 in - SSE 13.8 mph - N/A   Unknown
7:00 PM 46.8 °F - 45.1 °F 94% 30.07 in - SSE 15.0 mph - N/A   Unknown
8:00 PM 46.4 °F 40.4 °F 45.3 °F 96% 30.03 in - SSE 13.8 mph - N/A   Unknown
9:00 PM 46.6 °F - 45.3 °F 95% 30.01 in - SSE 17.3 mph - N/A   Unknown
10:00 PM 47 °F - 46 °F 92% 29.96 in - SSE 23.0 mph - -  
10:00 PM 46.6 °F - 45.5 °F 96% 29.96 in - SSE 23.0 mph - N/A   Unknown
11:00 PM 46.9 °F - 45.9 °F 96% 29.95 in - SSE 20.7 mph - N/A   Unknown